Location: Poughquag
(41.6090°N, 73.6820°W)
Time: 13:43:29
(UTC-04:00)

Courier 1B - Pass Details

Date: 03 June 2020
Orbit: 962 x 1209 km, 28.3° (Epoch: 05 July)

Event Time Altitude Azimuth Distance (km) Brightness Sun altitude
Exits shadow 02:52:16 23° 171° (S) 2,291 9.0 -20.3°
Drops below altitude 10° 02:56:32 10° 140° (SE) 3,138 9.9 -19.9°
Sets 02:59:56 0° 128° (SE) 4,100 10.7 -19.6°
